Weather History for Houghton, MI

Change the Weather History Date:

Sunday, November 11, 2012

  Actual Average Record
Temperature  
Mean Temperature 45 °F -  
Max Temperature 57 °F 35 °F 61 °F (1961)
Min Temperature 33 °F 25 °F 7 °F (1979)
Degree Days  
Heating Degree Days 20    
Moisture  
Dew Point 42 °F    
Average Humidity 93    
Maximum Humidity 100    
Minimum Humidity 77    
Precipitation  
Precipitation 0.71 in - - ()
Sea Level Pressure  
Sea Level Pressure 29.61 in    
Wind  
Wind Speed 13 mph (West)    
Max Wind Speed 28 mph    
Max Gust Speed 37 mph    
Visibility 6 miles    
Events Fog , Rain , Snow , Thunderstorm    
Averages and records for this station are not official NWS values.
T = Trace of Precipitation, MM = Missing Value Source: NWS Daily Summary

Daily Weather History Graph

Daily Weather History Graph

Search for Another Location

Airport:

Trip Planner

Search our weather history database for the weather conditions in past years. The results will help you decide how hot, cold, wet, or windy it might be!

Date:

Astronomy

Nov. 11, 2012 Rise Set
Actual Time 7:52 AM EST 5:22 PM EST
Civil Twilight 7:19 AM EST 5:55 PM EST
Nautical Twilight 6:42 AM EST 6:32 PM EST
Astronomical Twilight 6:07 AM EST 7:08 PM EST
Moon 4:58 AM EST (11/11) 3:52 PM EST (11/11)
Length of Visible Light 10h 36m
Length of Day
9h 30m
Waning Crescent, 7% of the Moon is Illuminated
Nov 11
Waning Crescent
Nov 13
New
Nov 20
First Quarter
Nov 28
Full
Dec 6
Last Quarter

Hourly Weather History & Observations

Time (EST) Temp. Windchill Dew Point Humidity Pressure Visibility Wind Dir Wind Speed Gust Speed Precip Events Conditions
12:19 AM 44.6 °F 38.8 °F 44.6 °F 100% 29.67 in 0.2 mi East 11.5 mph - 0.01 in Fog , Rain , Thunderstorm Light Rain
12:34 AM 44.6 °F 38.8 °F 44.6 °F 100% 29.68 in 0.2 mi East 11.5 mph - 0.05 in Fog , Rain Heavy Rain
12:53 AM 45.0 °F 38.9 °F 45.0 °F 100% 29.68 in 0.2 mi East 12.7 mph - 0.06 in Fog , Rain Light Rain
1:28 AM 46.4 °F 41.5 °F 46.4 °F 100% 29.64 in 0.2 mi East 10.4 mph - 0.03 in Fog , Rain Rain
1:53 AM 46.0 °F 40.6 °F 46.0 °F 100% 29.65 in 0.2 mi East 11.5 mph - 0.04 in Fog , Rain Light Rain
2:53 AM 46.9 °F - 46.9 °F 100% 29.63 in 0.2 mi East 10.4 mph - 0.00 in Fog Fog
2:58 AM 46.4 °F 41.9 °F 46.4 °F 100% 29.61 in 0.5 mi East 9.2 mph - N/A Fog Fog
3:18 AM 48.2 °F - 48.2 °F 100% 29.61 in 1.5 mi ESE 10.4 mph - 0.01 in Rain Light Rain
3:38 AM 48.2 °F - 48.2 °F 100% 29.61 in 2.5 mi ESE 8.1 mph - 0.01 in   Mostly Cloudy
3:53 AM 48.9 °F - 48.9 °F 100% 29.62 in 3.0 mi ESE 6.9 mph - 0.01 in   Scattered Clouds
4:53 AM 52.0 °F - 50.0 °F 93% 29.61 in 7.0 mi South 6.9 mph - N/A   Overcast
5:53 AM 52.0 °F - 48.9 °F 89% 29.61 in 8.0 mi SSW 11.5 mph - N/A   Clear
6:53 AM 54.0 °F - 50.0 °F 86% 29.61 in 10.0 mi SSW 10.4 mph - N/A   Clear
7:53 AM 55.0 °F - 48.9 °F 80% 29.60 in 10.0 mi South 8.1 mph - N/A   Scattered Clouds
8:53 AM 55.9 °F - 50.0 °F 80% 29.62 in 10.0 mi SSW 9.2 mph - N/A   Overcast
9:53 AM 55.0 °F - 50.0 °F 83% 29.61 in 10.0 mi South 5.8 mph - 0.00 in   Mostly Cloudy
10:53 AM 57.2 °F - 50.0 °F 77% 29.58 in 10.0 mi SSW 5.8 mph - N/A   Mostly Cloudy
11:53 AM 55.0 °F - 51.1 °F 86% 29.62 in 10.0 mi SE 8.1 mph - 0.00 in Rain Light Rain
12:15 PM 57.2 °F - 51.8 °F 82% 29.59 in 10.0 mi SSE 11.5 mph - N/A   Overcast
12:41 PM 48.2 °F - 46.4 °F 93% 29.61 in 3.0 mi WNW 17.3 mph - 0.03 in Rain Rain
12:53 PM 48.0 °F - 46.9 °F 96% 29.62 in 5.0 mi WNW 13.8 mph - 0.04 in Rain Light Rain
1:53 PM 46.0 °F 39.3 °F 45.0 °F 96% 29.60 in 3.0 mi WNW 16.1 mph - 0.08 in Rain Rain
1:59 PM 46.4 °F 39.8 °F 44.6 °F 93% 29.58 in 4.0 mi WNW 16.1 mph - 0.00 in Rain Light Rain
2:37 PM 42.8 °F 34.5 °F 42.8 °F 100% 29.58 in 4.0 mi NW 18.4 mph - 0.09 in Rain Rain
2:51 PM 42.8 °F 35.4 °F 42.8 °F 100% 29.57 in 6.0 mi NW 15.0 mph 24.2 mph 0.11 in Rain Light Rain
2:53 PM 43.0 °F 34.5 °F 42.1 °F 97% 29.59 in 7.0 mi WNW 19.6 mph 24.2 mph 0.11 in Rain Light Rain
3:23 PM 42.8 °F 35.8 °F 41.0 °F 93% 29.57 in 4.0 mi WNW 13.8 mph 24.2 mph 0.04 in Rain Rain
3:53 PM 41.0 °F 32.8 °F 39.9 °F 96% 29.60 in 2.5 mi WNW 16.1 mph - 0.13 in Rain Rain
4:00 PM 41.0 °F 32.5 °F 39.2 °F 93% 29.59 in 5.0 mi WNW 17.3 mph - 0.02 in Rain Light Rain
4:53 PM 39.9 °F 31.4 °F 37.9 °F 93% 29.63 in 6.0 mi West 16.1 mph - 0.09 in Rain Light Rain
5:10 PM 39.2 °F 33.0 °F 37.4 °F 93% 29.59 in 5.0 mi WNW 9.2 mph - 0.02 in Rain Rain
5:23 PM 39.2 °F 33.0 °F 37.4 °F 93% 29.59 in 6.0 mi WNW 9.2 mph - 0.04 in Rain Light Rain
5:53 PM 39.0 °F 33.4 °F 37.9 °F 96% 29.63 in 9.0 mi West 8.1 mph - 0.07 in Rain Light Rain
6:08 PM 39.2 °F 32.0 °F 37.4 °F 93% 29.60 in 7.0 mi West 11.5 mph - 0.02 in Rain Light Rain
6:53 PM 37.9 °F 29.2 °F 37.0 °F 97% 29.61 in 10.0 mi West 15.0 mph 21.9 mph 0.04 in Rain Light Rain
7:53 PM 37.0 °F 26.7 °F 36.0 °F 96% 29.62 in 10.0 mi WNW 19.6 mph - 0.01 in Rain Light Rain
8:00 PM 37.4 °F 27.5 °F 35.6 °F 93% 29.59 in 10.0 mi WNW 18.4 mph - 0.00 in   Overcast
8:44 PM 37.4 °F 27.8 °F 35.6 °F 93% 29.59 in 10.0 mi WNW 17.3 mph 28.8 mph 0.01 in Rain Light Rain
8:53 PM 37.0 °F 27.0 °F 35.1 °F 93% 29.60 in 10.0 mi West 18.4 mph 25.3 mph 0.01 in   Overcast
9:00 PM 37.4 °F 27.8 °F 35.6 °F 93% 29.58 in 10.0 mi WNW 17.3 mph 25.3 mph N/A   Overcast
9:11 PM 37.4 °F 27.2 °F 35.6 °F 93% 29.60 in 10.0 mi West 19.6 mph 31.1 mph N/A   Overcast
9:53 PM 35.1 °F 22.2 °F 34.0 °F 96% 29.65 in 4.0 mi West 27.6 mph 36.8 mph 0.01 in Rain Light Rain
10:53 PM 34.0 °F 21.8 °F 32.0 °F 92% 29.65 in 6.0 mi West 23.0 mph 31.1 mph 0.01 in   Overcast
11:28 PM 33.8 °F 20.8 °F 30.2 °F 87% 29.65 in 4.0 mi West 26.5 mph 36.8 mph 0.00 in Snow Light Snow
11:53 PM 33.1 °F 20.9 °F 30.0 °F 89% 29.69 in 8.0 mi West 21.9 mph 35.7 mph 0.00 in   Overcast